Year,Month,Day,Hour,Minute,Value (Times are PST for windspeed in km/hr)
2006,02,16,00,00,2.30
2006,02,16,00,01,3.20
2006,02,16,00,02,3.40
2006,02,16,00,03,2.60
2006,02,16,00,04,2.30
2006,02,16,00,05,2.90
2006,02,16,00,06,1.30
2006,02,16,00,07,2.70
2006,02,16,00,08,1.60
2006,02,16,00,09,4.60
2006,02,16,00,10,3.00
2006,02,16,00,11,2.80
2006,02,16,00,12,2.90
2006,02,16,00,13,3.40
2006,02,16,00,14,2.60
2006,02,16,00,15,3.10
2006,02,16,00,16,3.00
2006,02,16,00,17,3.00
2006,02,16,00,18,3.10
2006,02,16,00,19,4.00
2006,02,16,00,20,4.00
2006,02,16,00,21,3.50
2006,02,16,00,22,3.60
2006,02,16,00,23,2.50
2006,02,16,00,24,1.90
2006,02,16,00,25,2.60
2006,02,16,00,26,2.70
2006,02,16,00,27,2.60
2006,02,16,00,28,3.10
2006,02,16,00,29,3.40
2006,02,16,00,30,3.10
2006,02,16,00,31,2.90
2006,02,16,00,32,3.10
2006,02,16,00,33,2.40
2006,02,16,00,34,2.10
2006,02,16,00,35,2.50
2006,02,16,00,36,3.40
2006,02,16,00,37,2.30
2006,02,16,00,38,1.60
2006,02,16,00,39,2.20
2006,02,16,00,40,4.10
2006,02,16,00,41,3.30
2006,02,16,00,42,3.90
2006,02,16,00,43,4.70
2006,02,16,00,44,1.80
2006,02,16,00,45,1.90
2006,02,16,00,46,1.60
2006,02,16,00,47,1.60
2006,02,16,00,48,1.60
2006,02,16,00,49,2.20
2006,02,16,00,50,2.40
2006,02,16,00,51,2.20
2006,02,16,00,52,2.90
2006,02,16,00,53,2.30
2006,02,16,00,54,3.50
2006,02,16,00,55,2.70
2006,02,16,00,56,3.30
2006,02,16,00,57,2.50
2006,02,16,00,58,3.00
2006,02,16,00,59,3.10
2006,02,16,01,00,3.50
2006,02,16,01,01,3.40
2006,02,16,01,02,2.00
2006,02,16,01,03,1.70
2006,02,16,01,04,1.30
2006,02,16,01,05,1.90
2006,02,16,01,06,2.00
2006,02,16,01,07,1.50
2006,02,16,01,08,1.50
2006,02,16,01,09,3.40
2006,02,16,01,10,3.90
2006,02,16,01,11,3.10
2006,02,16,01,12,3.30
2006,02,16,01,13,5.60
2006,02,16,01,14,4.70
2006,02,16,01,15,3.10
2006,02,16,01,16,3.90
2006,02,16,01,17,5.50
2006,02,16,01,18,4.30
2006,02,16,01,19,3.80
2006,02,16,01,20,2.70
2006,02,16,01,21,5.60
2006,02,16,01,22,2.30
2006,02,16,01,23,2.40
2006,02,16,01,24,3.60
2006,02,16,01,25,2.10
2006,02,16,01,26,3.00
2006,02,16,01,27,3.50
2006,02,16,01,28,2.40
2006,02,16,01,29,3.50
2006,02,16,01,30,3.50
2006,02,16,01,31,3.80
2006,02,16,01,32,4.40
2006,02,16,01,33,5.00
2006,02,16,01,34,2.50
2006,02,16,01,35,3.90
2006,02,16,01,36,3.80
2006,02,16,01,37,1.90
2006,02,16,01,38,1.10
2006,02,16,01,39,4.70
2006,02,16,01,40,3.60
2006,02,16,01,41,4.00
2006,02,16,01,42,3.60
2006,02,16,01,43,3.30
2006,02,16,01,44,1.50
2006,02,16,01,45,2.30
2006,02,16,01,46,2.00
2006,02,16,01,47,2.40
2006,02,16,01,48,3.50
2006,02,16,01,49,3.00
2006,02,16,01,50,3.30
2006,02,16,01,51,3.10
2006,02,16,01,52,3.50
2006,02,16,01,53,2.90
2006,02,16,01,54,3.90
2006,02,16,01,55,5.00
2006,02,16,01,56,8.90
2006,02,16,01,57,4.80
2006,02,16,01,58,4.80
2006,02,16,01,59,3.90
2006,02,16,02,00,2.30
2006,02,16,02,01,5.30
2006,02,16,02,02,5.10
2006,02,16,02,03,4.50
2006,02,16,02,04,2.90
2006,02,16,02,05,2.40
2006,02,16,02,06,2.10
2006,02,16,02,07,2.50
2006,02,16,02,08,3.80
2006,02,16,02,09,2.50
2006,02,16,02,10,3.50
2006,02,16,02,11,4.50
2006,02,16,02,12,4.40
2006,02,16,02,13,3.50
2006,02,16,02,14,4.30
2006,02,16,02,15,3.20
2006,02,16,02,16,3.20
2006,02,16,02,17,3.20
2006,02,16,02,18,3.30
2006,02,16,02,19,3.50
2006,02,16,02,20,4.20
2006,02,16,02,21,4.10
2006,02,16,02,22,3.70
2006,02,16,02,23,3.90
2006,02,16,02,24,3.70
2006,02,16,02,25,3.60
2006,02,16,02,26,3.80
2006,02,16,02,27,4.00
2006,02,16,02,28,4.30
2006,02,16,02,29,5.00
2006,02,16,02,30,4.10
2006,02,16,02,31,3.60
2006,02,16,02,32,4.50
2006,02,16,02,33,4.10
2006,02,16,02,34,4.70
2006,02,16,02,35,4.40
2006,02,16,02,36,4.70
2006,02,16,02,37,4.00
2006,02,16,02,38,3.50
2006,02,16,02,39,4.00
2006,02,16,02,40,5.10
2006,02,16,02,41,4.30
2006,02,16,02,42,4.40
2006,02,16,02,43,5.60
2006,02,16,02,44,5.90
2006,02,16,02,45,6.00
2006,02,16,02,46,4.80
2006,02,16,02,47,4.40
2006,02,16,02,48,5.00
2006,02,16,02,49,4.80
2006,02,16,02,50,4.70
2006,02,16,02,51,5.00
2006,02,16,02,52,5.20
2006,02,16,02,53,4.10
2006,02,16,02,54,4.70
2006,02,16,02,55,3.60
2006,02,16,02,56,4.50
2006,02,16,02,57,5.60
2006,02,16,02,58,4.30
2006,02,16,02,59,3.90
2006,02,16,03,00,4.90
2006,02,16,03,01,6.00
2006,02,16,03,02,4.70
2006,02,16,03,03,4.40
2006,02,16,03,04,6.20
2006,02,16,03,05,3.20
2006,02,16,03,06,3.90
2006,02,16,03,07,4.50
2006,02,16,03,08,4.90
2006,02,16,03,09,3.90
2006,02,16,03,10,3.00
2006,02,16,03,11,2.60
2006,02,16,03,12,2.50
2006,02,16,03,13,3.50
2006,02,16,03,14,2.30
2006,02,16,03,15,3.00
2006,02,16,03,16,0.40
2006,02,16,03,17,1.70
2006,02,16,03,18,4.00
2006,02,16,03,19,2.70
2006,02,16,03,20,2.80
2006,02,16,03,21,2.60
2006,02,16,03,22,2.70
2006,02,16,03,23,1.40
2006,02,16,03,24,1.30
2006,02,16,03,25,2.00
2006,02,16,03,26,3.20
2006,02,16,03,27,3.30
2006,02,16,03,28,3.40
2006,02,16,03,29,4.00
2006,02,16,03,30,2.00
2006,02,16,03,31,2.70
2006,02,16,03,32,4.20
2006,02,16,03,33,5.20
2006,02,16,03,34,4.70
2006,02,16,03,35,3.60
2006,02,16,03,36,4.50
2006,02,16,03,37,3.00
2006,02,16,03,38,4.30
2006,02,16,03,39,5.60
2006,02,16,03,40,5.40
2006,02,16,03,41,3.90
2006,02,16,03,42,4.80
2006,02,16,03,43,5.20
2006,02,16,03,44,4.80
2006,02,16,03,45,5.30
2006,02,16,03,46,4.90
2006,02,16,03,47,2.50
2006,02,16,03,48,4.20
2006,02,16,03,49,4.70
2006,02,16,03,50,4.70
2006,02,16,03,51,4.20
2006,02,16,03,52,2.60
2006,02,16,03,53,4.00
2006,02,16,03,54,1.70
2006,02,16,03,55,0.40
2006,02,16,03,56,1.00
2006,02,16,03,57,0.40
2006,02,16,03,58,0.20
2006,02,16,03,59,2.50
2006,02,16,04,00,2.30
2006,02,16,04,01,2.80
2006,02,16,04,02,3.80
2006,02,16,04,03,4.30
2006,02,16,04,04,4.30
2006,02,16,04,05,4.40
2006,02,16,04,06,3.00
2006,02,16,04,07,1.80
2006,02,16,04,08,3.20
2006,02,16,04,09,3.00
2006,02,16,04,10,4.20
2006,02,16,04,11,4.70
2006,02,16,04,12,6.40
2006,02,16,04,13,6.40
2006,02,16,04,14,5.00
2006,02,16,04,15,4.10
2006,02,16,04,16,4.00
2006,02,16,04,17,3.60
2006,02,16,04,18,3.80
2006,02,16,04,19,4.70
2006,02,16,04,20,3.90
2006,02,16,04,21,4.20
2006,02,16,04,22,3.90
2006,02,16,04,23,4.10
2006,02,16,04,24,3.00
2006,02,16,04,25,3.00
2006,02,16,04,26,4.60
2006,02,16,04,27,5.10
2006,02,16,04,28,4.70
2006,02,16,04,29,4.40
2006,02,16,04,30,3.90
2006,02,16,04,31,4.70
2006,02,16,04,32,4.10
2006,02,16,04,33,3.90
2006,02,16,04,34,3.00
2006,02,16,04,35,3.80
2006,02,16,04,36,5.80
2006,02,16,04,37,3.50
2006,02,16,04,38,2.40
2006,02,16,04,39,4.10
2006,02,16,04,40,2.70
2006,02,16,04,41,3.80
2006,02,16,04,42,4.30
2006,02,16,04,43,3.60
2006,02,16,04,44,4.40
2006,02,16,04,45,5.30
2006,02,16,04,46,4.00
2006,02,16,04,47,5.60
2006,02,16,04,48,7.60
2006,02,16,04,49,5.10
2006,02,16,04,50,3.70
2006,02,16,04,51,3.80
2006,02,16,04,52,3.60
2006,02,16,04,53,9.00
2006,02,16,04,54,10.90
2006,02,16,04,55,10.50
2006,02,16,04,56,5.60
2006,02,16,04,57,3.80
2006,02,16,04,58,9.30
2006,02,16,04,59,9.70
2006,02,16,05,00,14.30
2006,02,16,05,01,10.90
2006,02,16,05,02,10.00
2006,02,16,05,03,7.30
2006,02,16,05,04,5.40
2006,02,16,05,05,6.40
2006,02,16,05,06,3.10
2006,02,16,05,07,7.50
2006,02,16,05,08,7.50
2006,02,16,05,09,4.80
2006,02,16,05,10,5.40
2006,02,16,05,11,6.00
2006,02,16,05,12,5.40
2006,02,16,05,13,6.40
2006,02,16,05,14,7.30
2006,02,16,05,15,4.60
2006,02,16,05,16,9.90
2006,02,16,05,17,10.40
2006,02,16,05,18,9.30
2006,02,16,05,19,5.10
2006,02,16,05,20,6.70
2006,02,16,05,21,5.50
2006,02,16,05,22,7.00
2006,02,16,05,23,7.90
2006,02,16,05,24,5.30
2006,02,16,05,25,3.20
2006,02,16,05,26,4.50
2006,02,16,05,27,3.60
2006,02,16,05,28,5.40
2006,02,16,05,29,4.40
2006,02,16,05,30,6.40
2006,02,16,05,31,4.30
2006,02,16,05,32,5.10
2006,02,16,05,33,5.30
2006,02,16,05,34,4.20
2006,02,16,05,35,4.70
2006,02,16,05,36,4.50
2006,02,16,05,37,4.50
2006,02,16,05,38,6.30
2006,02,16,05,39,4.70
2006,02,16,05,40,4.70
2006,02,16,05,41,3.90
2006,02,16,05,42,3.00
2006,02,16,05,43,5.10
2006,02,16,05,44,5.60
2006,02,16,05,45,3.80
2006,02,16,05,46,4.20
2006,02,16,05,47,4.80
2006,02,16,05,48,4.80
2006,02,16,05,49,5.10
2006,02,16,05,50,5.50
2006,02,16,05,51,6.00
2006,02,16,05,52,6.90
2006,02,16,05,53,6.40
2006,02,16,05,54,5.20
2006,02,16,05,55,6.00
2006,02,16,05,56,4.70
2006,02,16,05,57,5.10
2006,02,16,05,58,5.90
2006,02,16,05,59,5.50
2006,02,16,06,00,5.80
2006,02,16,06,01,6.50
2006,02,16,06,02,5.10
2006,02,16,06,03,5.70
2006,02,16,06,04,5.80
2006,02,16,06,05,6.40
2006,02,16,06,06,5.20
2006,02,16,06,07,5.10
2006,02,16,06,08,5.30
2006,02,16,06,09,5.30
2006,02,16,06,10,6.00
2006,02,16,06,11,3.60
2006,02,16,06,12,3.40
2006,02,16,06,13,4.70
2006,02,16,06,14,9.40
2006,02,16,06,15,5.70
2006,02,16,06,16,4.90
2006,02,16,06,17,3.70
2006,02,16,06,18,7.60
2006,02,16,06,19,3.90
2006,02,16,06,20,5.20
2006,02,16,06,21,4.40
2006,02,16,06,22,5.20
2006,02,16,06,23,5.00
2006,02,16,06,24,4.10
2006,02,16,06,25,4.00
2006,02,16,06,26,3.10
2006,02,16,06,27,4.80
2006,02,16,06,28,4.10
2006,02,16,06,29,5.30
2006,02,16,06,30,5.20
2006,02,16,06,31,11.90
2006,02,16,06,32,16.70
2006,02,16,06,33,12.00
2006,02,16,06,34,3.40
2006,02,16,06,35,8.90
2006,02,16,06,36,9.30
2006,02,16,06,37,9.60
2006,02,16,06,38,6.90
2006,02,16,06,39,9.50
2006,02,16,06,40,9.40
2006,02,16,06,41,9.40
2006,02,16,06,42,12.60
2006,02,16,06,43,10.30
2006,02,16,06,44,12.60
2006,02,16,06,45,21.60
2006,02,16,06,46,15.20
2006,02,16,06,47,13.30
2006,02,16,06,48,10.00
2006,02,16,06,49,10.70
2006,02,16,06,50,26.10
2006,02,16,06,51,26.60
2006,02,16,06,52,19.20
2006,02,16,06,53,20.10
2006,02,16,06,54,23.20
2006,02,16,06,55,22.10
2006,02,16,06,56,15.80
2006,02,16,06,57,14.80
2006,02,16,06,58,25.70
2006,02,16,06,59,14.70
2006,02,16,07,00,17.80
2006,02,16,07,01,22.70
2006,02,16,07,02,23.30
2006,02,16,07,03,22.00
2006,02,16,07,04,18.10
2006,02,16,07,05,17.50
2006,02,16,07,06,16.40
2006,02,16,07,07,17.10
2006,02,16,07,08,19.70
2006,02,16,07,09,14.90
2006,02,16,07,10,17.90
2006,02,16,07,11,24.10
2006,02,16,07,12,16.30
2006,02,16,07,13,25.00
2006,02,16,07,14,12.30
2006,02,16,07,15,14.80
2006,02,16,07,16,13.80
2006,02,16,07,17,17.70
2006,02,16,07,18,15.80
2006,02,16,07,19,14.80
2006,02,16,07,20,18.30
2006,02,16,07,21,16.60
2006,02,16,07,22,14.40
2006,02,16,07,23,14.90
2006,02,16,07,24,14.90
2006,02,16,07,25,15.80
2006,02,16,07,26,20.80
2006,02,16,07,27,12.20
2006,02,16,07,28,17.80
2006,02,16,07,29,15.80
2006,02,16,07,30,10.80
2006,02,16,07,31,15.80
2006,02,16,07,32,13.00
2006,02,16,07,33,12.70
2006,02,16,07,34,15.90
2006,02,16,07,35,22.00
2006,02,16,07,36,25.80
2006,02,16,07,37,20.60
2006,02,16,07,38,14.90
2006,02,16,07,39,23.20
2006,02,16,07,40,17.40
2006,02,16,07,41,24.40
2006,02,16,07,42,20.00
2006,02,16,07,43,24.20
2006,02,16,07,44,23.30
2006,02,16,07,45,18.80
2006,02,16,07,46,18.20
2006,02,16,07,47,26.60
2006,02,16,07,48,23.60
2006,02,16,07,49,15.80
2006,02,16,07,50,21.60
2006,02,16,07,51,19.60
2006,02,16,07,52,26.10
2006,02,16,07,53,26.90
2006,02,16,07,54,27.00
2006,02,16,07,55,28.50
2006,02,16,07,56,29.20
2006,02,16,07,57,15.80
2006,02,16,07,58,19.90
2006,02,16,07,59,15.90
2006,02,16,08,00,24.50
2006,02,16,08,01,20.50
2006,02,16,08,02,26.60
2006,02,16,08,03,15.70
2006,02,16,08,04,19.20
2006,02,16,08,05,31.40
2006,02,16,08,06,30.00
2006,02,16,08,07,26.00
2006,02,16,08,08,20.00
2006,02,16,08,09,14.90
2006,02,16,08,10,20.00
2006,02,16,08,11,22.00
2006,02,16,08,12,21.00
2006,02,16,08,13,15.40
2006,02,16,08,14,29.60
2006,02,16,08,15,24.90
2006,02,16,08,16,25.00
2006,02,16,08,17,20.30
2006,02,16,08,18,31.30
2006,02,16,08,19,17.90
2006,02,16,08,20,21.20
2006,02,16,08,21,23.00
2006,02,16,08,22,22.40
2006,02,16,08,23,17.50
2006,02,16,08,24,20.40
2006,02,16,08,25,18.70
2006,02,16,08,26,24.90
2006,02,16,08,27,19.50
2006,02,16,08,28,21.80
2006,02,16,08,29,26.30
2006,02,16,08,30,26.60
2006,02,16,08,31,20.70
2006,02,16,08,32,27.50
2006,02,16,08,33,30.60
2006,02,16,08,34,30.60
2006,02,16,08,35,30.60
2006,02,16,08,36,23.60
2006,02,16,08,37,15.00
2006,02,16,08,38,22.90
2006,02,16,08,39,31.30
2006,02,16,08,40,29.90
2006,02,16,08,41,27.00
2006,02,16,08,42,21.40
2006,02,16,08,43,18.90
2006,02,16,08,44,21.40
2006,02,16,08,45,29.30
2006,02,16,08,46,32.10
2006,02,16,08,47,19.60
2006,02,16,08,48,18.10
2006,02,16,08,49,14.60
2006,02,16,08,50,14.50
2006,02,16,08,51,15.20
2006,02,16,08,52,19.60
2006,02,16,08,53,20.90
2006,02,16,08,54,21.90
2006,02,16,08,55,18.00
2006,02,16,08,56,16.70
2006,02,16,08,57,18.90
2006,02,16,08,58,16.60
2006,02,16,08,59,22.40
2006,02,16,09,00,27.10
2006,02,16,09,01,27.40
2006,02,16,09,02,27.40
2006,02,16,09,03,25.70
2006,02,16,09,04,24.10
2006,02,16,09,05,26.30
2006,02,16,09,06,29.00
2006,02,16,09,07,28.30
2006,02,16,09,08,32.80
2006,02,16,09,09,31.50
2006,02,16,09,10,26.50
2006,02,16,09,11,24.20
2006,02,16,09,12,20.20
2006,02,16,09,13,19.20
2006,02,16,09,14,25.90
2006,02,16,09,15,24.90
2006,02,16,09,16,24.00
2006,02,16,09,17,27.40
2006,02,16,09,18,27.40
2006,02,16,09,19,27.20
2006,02,16,09,20,27.00
2006,02,16,09,21,30.70
2006,02,16,09,22,34.60
2006,02,16,09,23,39.20
2006,02,16,09,24,29.10
2006,02,16,09,25,15.70
2006,02,16,09,26,28.30
2006,02,16,09,27,24.70
2006,02,16,09,28,24.80
2006,02,16,09,29,20.20
2006,02,16,09,30,23.00
2006,02,16,09,31,23.30
2006,02,16,09,32,24.60
2006,02,16,09,33,21.10
2006,02,16,09,34,24.90
2006,02,16,09,35,20.50
2006,02,16,09,36,14.70
2006,02,16,09,37,22.20
2006,02,16,09,38,19.20
2006,02,16,09,39,27.40
2006,02,16,09,40,23.70
2006,02,16,09,41,15.80
2006,02,16,09,42,26.90
2006,02,16,09,43,22.00
2006,02,16,09,44,27.20
2006,02,16,09,45,41.70
2006,02,16,09,46,41.80
2006,02,16,09,47,41.80
2006,02,16,09,48,41.80
2006,02,16,09,49,41.80
2006,02,16,09,50,41.80
2006,02,16,09,51,41.80
2006,02,16,09,52,41.80
2006,02,16,09,53,39.30
2006,02,16,09,54,21.50
2006,02,16,09,55,28.60
2006,02,16,09,56,31.80
2006,02,16,09,57,32.30
2006,02,16,09,58,22.50
2006,02,16,09,59,26.10
2006,02,16,10,00,21.60
2006,02,16,10,01,29.60
2006,02,16,10,02,26.80
2006,02,16,10,03,23.10
2006,02,16,10,04,24.90
2006,02,16,10,05,22.40
2006,02,16,10,06,27.60
2006,02,16,10,07,29.10
2006,02,16,10,08,37.40
2006,02,16,10,09,23.80
2006,02,16,10,10,28.70
2006,02,16,10,11,30.50
2006,02,16,10,12,27.10
2006,02,16,10,13,34.60
2006,02,16,10,14,35.90
2006,02,16,10,15,31.10
2006,02,16,10,16,32.20
2006,02,16,10,17,37.70
2006,02,16,10,18,30.80
2006,02,16,10,19,34.30
2006,02,16,10,20,24.50
2006,02,16,10,21,26.70
2006,02,16,10,22,24.90
2006,02,16,10,23,16.10
2006,02,16,10,24,27.10
2006,02,16,10,25,17.40
2006,02,16,10,26,21.00
2006,02,16,10,27,17.50
2006,02,16,10,28,21.30
2006,02,16,10,29,33.10
2006,02,16,10,30,18.00
2006,02,16,10,31,20.50
2006,02,16,10,32,21.40
2006,02,16,10,33,27.90
2006,02,16,10,34,26.60
2006,02,16,10,35,36.10
2006,02,16,10,36,25.80
2006,02,16,10,37,19.90
2006,02,16,10,38,26.20
2006,02,16,10,39,26.60
2006,02,16,10,40,19.20
2006,02,16,10,41,17.30
2006,02,16,10,42,23.50
2006,02,16,10,43,36.20
2006,02,16,10,44,30.70
2006,02,16,10,45,27.40
2006,02,16,10,46,31.70
2006,02,16,10,47,26.20
2006,02,16,10,48,30.60
2006,02,16,10,49,31.50
2006,02,16,10,50,30.80
2006,02,16,10,51,32.30
2006,02,16,10,52,36.20
2006,02,16,10,53,23.30
2006,02,16,10,54,28.00
2006,02,16,10,55,29.00
2006,02,16,10,56,27.80
2006,02,16,10,57,23.80
2006,02,16,10,58,17.50
2006,02,16,10,59,19.50
2006,02,16,11,00,33.20
2006,02,16,11,01,19.70
2006,02,16,11,02,20.00
2006,02,16,11,03,19.70
2006,02,16,11,04,17.70
2006,02,16,11,05,20.30
2006,02,16,11,06,17.40
2006,02,16,11,07,31.90
2006,02,16,11,08,22.70
2006,02,16,11,09,21.30
2006,02,16,11,10,25.40
2006,02,16,11,11,21.70
2006,02,16,11,12,25.10
2006,02,16,11,13,33.90
2006,02,16,11,14,22.60
2006,02,16,11,15,30.20
2006,02,16,11,16,27.50
2006,02,16,11,17,28.50
2006,02,16,11,18,21.00
2006,02,16,11,19,22.30
2006,02,16,11,20,23.70
2006,02,16,11,21,20.00
2006,02,16,11,22,19.60
2006,02,16,11,23,26.80
2006,02,16,11,24,27.50
2006,02,16,11,25,31.20
2006,02,16,11,26,24.10
2006,02,16,11,27,22.60
2006,02,16,11,28,26.30
2006,02,16,11,29,28.70
2006,02,16,11,30,32.50
2006,02,16,11,31,32.60
2006,02,16,11,32,22.80
2006,02,16,11,33,21.10
2006,02,16,11,34,27.40
2006,02,16,11,35,24.60
2006,02,16,11,36,24.50
2006,02,16,11,37,29.60
2006,02,16,11,38,24.70
2006,02,16,11,39,21.30
2006,02,16,11,40,29.80
2006,02,16,11,41,18.20
2006,02,16,11,42,26.10
2006,02,16,11,43,26.10
2006,02,16,11,44,19.10
2006,02,16,11,45,22.70
2006,02,16,11,46,21.40
2006,02,16,11,47,28.10
2006,02,16,11,48,14.20
2006,02,16,11,49,22.40
2006,02,16,11,50,28.20
2006,02,16,11,51,21.20
2006,02,16,11,52,24.20
2006,02,16,11,53,18.60
2006,02,16,11,54,21.00
2006,02,16,11,55,25.10
2006,02,16,11,56,28.40
2006,02,16,11,57,32.90
2006,02,16,11,58,27.30
2006,02,16,11,59,27.70
2006,02,16,12,00,23.30
2006,02,16,12,01,24.60
2006,02,16,12,02,25.60
2006,02,16,12,03,26.60
2006,02,16,12,04,26.50
2006,02,16,12,05,24.20
2006,02,16,12,06,22.50
2006,02,16,12,07,22.90
2006,02,16,12,08,24.70
2006,02,16,12,09,27.30
2006,02,16,12,10,29.60
2006,02,16,12,11,29.00
2006,02,16,12,12,26.40
2006,02,16,12,13,25.70
2006,02,16,12,14,21.20
2006,02,16,12,15,15.70
2006,02,16,12,16,16.40
2006,02,16,12,17,19.80
2006,02,16,12,18,21.30
2006,02,16,12,19,27.00
2006,02,16,12,20,21.80
2006,02,16,12,21,22.10
2006,02,16,12,22,25.60
2006,02,16,12,23,28.70
2006,02,16,12,24,30.30
2006,02,16,12,25,23.30
2006,02,16,12,26,27.00
2006,02,16,12,27,30.00
2006,02,16,12,28,29.70
2006,02,16,12,29,28.20
2006,02,16,12,30,21.00
2006,02,16,12,31,19.10
2006,02,16,12,32,19.20
2006,02,16,12,33,12.60
2006,02,16,12,34,16.10
2006,02,16,12,35,29.00
2006,02,16,12,36,29.80
2006,02,16,12,37,20.40
2006,02,16,12,38,21.20
2006,02,16,12,39,29.10
2006,02,16,12,40,28.40
2006,02,16,12,41,23.30
2006,02,16,12,42,14.10
2006,02,16,12,43,15.50
2006,02,16,12,44,28.60
2006,02,16,12,45,19.50
2006,02,16,12,46,20.10
2006,02,16,12,47,18.60
2006,02,16,12,48,25.40
2006,02,16,12,49,17.50
2006,02,16,12,50,36.20
2006,02,16,12,51,20.80
2006,02,16,12,52,24.90
2006,02,16,12,53,21.90
2006,02,16,12,54,33.00
2006,02,16,12,55,26.90
2006,02,16,12,56,27.80
2006,02,16,12,57,25.20
2006,02,16,12,58,15.70
2006,02,16,12,59,18.80
2006,02,16,13,00,16.30
2006,02,16,13,01,13.50
2006,02,16,13,02,11.00
2006,02,16,13,03,17.60
2006,02,16,13,04,22.10
2006,02,16,13,05,24.40
2006,02,16,13,06,25.60
2006,02,16,13,07,34.40
2006,02,16,13,08,22.00
2006,02,16,13,09,24.90
2006,02,16,13,10,19.70
2006,02,16,13,11,23.30
2006,02,16,13,12,22.10
2006,02,16,13,13,19.90
2006,02,16,13,14,18.30
2006,02,16,13,15,23.90
2006,02,16,13,16,16.20
2006,02,16,13,17,14.00
2006,02,16,13,18,19.10
2006,02,16,13,19,22.00
2006,02,16,13,20,22.00
2006,02,16,13,21,11.60
2006,02,16,13,22,22.30
2006,02,16,13,23,14.20
2006,02,16,13,24,16.10
2006,02,16,13,25,12.50
2006,02,16,13,26,24.70
2006,02,16,13,27,29.30
2006,02,16,13,28,22.10
2006,02,16,13,29,20.20
2006,02,16,13,30,20.50
2006,02,16,13,31,27.30
2006,02,16,13,32,31.90
2006,02,16,13,33,15.80
2006,02,16,13,34,25.50
2006,02,16,13,35,23.90
2006,02,16,13,36,27.90
2006,02,16,13,37,28.00
2006,02,16,13,38,17.60
2006,02,16,13,39,30.10
2006,02,16,13,40,29.70
2006,02,16,13,41,26.50
2006,02,16,13,42,28.80
2006,02,16,13,43,19.30
2006,02,16,13,44,23.00
2006,02,16,13,45,16.90
2006,02,16,13,46,28.90
2006,02,16,13,47,20.40
2006,02,16,13,48,24.50
2006,02,16,13,49,29.60
2006,02,16,13,50,38.10
2006,02,16,13,51,29.10
2006,02,16,13,52,26.80
2006,02,16,13,53,24.00
2006,02,16,13,54,29.60
2006,02,16,13,55,27.50
2006,02,16,13,56,37.70
2006,02,16,13,57,26.90
2006,02,16,13,58,15.70
2006,02,16,13,59,15.30
2006,02,16,14,00,32.90
2006,02,16,14,01,32.90
2006,02,16,14,02,22.10
2006,02,16,14,03,25.90
2006,02,16,14,04,20.70
2006,02,16,14,05,20.40
2006,02,16,14,06,25.30
2006,02,16,14,07,15.70
2006,02,16,14,08,21.20
2006,02,16,14,09,19.70
2006,02,16,14,10,10.70
2006,02,16,14,11,16.60
2006,02,16,14,12,22.70
2006,02,16,14,13,25.70
2006,02,16,14,14,27.30
2006,02,16,14,15,25.90
2006,02,16,14,16,16.50
2006,02,16,14,17,18.10
2006,02,16,14,18,16.90
2006,02,16,14,19,19.70
2006,02,16,14,20,21.00
2006,02,16,14,21,22.90
2006,02,16,14,22,30.70
2006,02,16,14,23,29.40
2006,02,16,14,24,19.50
2006,02,16,14,25,22.70
2006,02,16,14,26,19.80
2006,02,16,14,27,25.70
2006,02,16,14,28,34.00
2006,02,16,14,29,28.00
2006,02,16,14,30,25.60
2006,02,16,14,31,18.00
2006,02,16,14,32,15.40
2006,02,16,14,33,17.90
2006,02,16,14,34,13.60
2006,02,16,14,35,18.60
2006,02,16,14,36,16.80
2006,02,16,14,37,15.80
2006,02,16,14,38,19.00
2006,02,16,14,39,20.40
2006,02,16,14,40,12.80
2006,02,16,14,41,12.20
2006,02,16,14,42,12.60
2006,02,16,14,43,12.20
2006,02,16,14,44,13.00
2006,02,16,14,45,26.00
2006,02,16,14,46,27.90
2006,02,16,14,47,25.30
2006,02,16,14,48,24.60
2006,02,16,14,49,29.40
2006,02,16,14,50,20.70
2006,02,16,14,51,29.40
2006,02,16,14,52,17.10
2006,02,16,14,53,20.20
2006,02,16,14,54,26.80
2006,02,16,14,55,19.40
2006,02,16,14,56,17.00
2006,02,16,14,57,14.20
2006,02,16,14,58,16.30
2006,02,16,14,59,20.40
2006,02,16,15,00,26.30
2006,02,16,15,01,15.50
2006,02,16,15,02,21.20
2006,02,16,15,03,23.00
2006,02,16,15,04,20.40
2006,02,16,15,05,27.90
2006,02,16,15,06,20.00
2006,02,16,15,07,16.20
2006,02,16,15,08,18.50
2006,02,16,15,09,11.90
2006,02,16,15,10,18.10
2006,02,16,15,11,30.30
2006,02,16,15,12,24.30
2006,02,16,15,13,18.90
2006,02,16,15,14,16.60
2006,02,16,15,15,13.40
2006,02,16,15,16,21.60
2006,02,16,15,17,12.30
2006,02,16,15,18,13.40
2006,02,16,15,19,16.30
2006,02,16,15,20,17.60
2006,02,16,15,21,19.10
2006,02,16,15,22,23.50
2006,02,16,15,23,24.00
2006,02,16,15,24,18.10
2006,02,16,15,25,8.50
2006,02,16,15,26,14.90
2006,02,16,15,27,21.00
2006,02,16,15,28,20.30
2006,02,16,15,29,24.10
2006,02,16,15,30,23.90
2006,02,16,15,31,16.90
2006,02,16,15,32,19.10
2006,02,16,15,33,14.60
2006,02,16,15,34,14.00
2006,02,16,15,35,9.10
2006,02,16,15,36,19.30
2006,02,16,15,37,20.40
2006,02,16,15,38,21.80
2006,02,16,15,39,15.00
2006,02,16,15,40,21.10
2006,02,16,15,41,24.90
2006,02,16,15,42,35.40
2006,02,16,15,43,35.40
2006,02,16,15,44,32.20
2006,02,16,15,45,20.70
2006,02,16,15,46,25.90
2006,02,16,15,47,24.20
2006,02,16,15,48,25.80
2006,02,16,15,49,25.70
2006,02,16,15,50,17.60
2006,02,16,15,51,20.90
2006,02,16,15,52,20.90
2006,02,16,15,53,20.90
2006,02,16,15,54,21.70
2006,02,16,15,55,22.30
2006,02,16,15,56,17.90
2006,02,16,15,57,18.70
2006,02,16,15,58,21.20
2006,02,16,15,59,15.00
2006,02,16,16,00,11.30
2006,02,16,16,01,18.80
2006,02,16,16,02,23.40
2006,02,16,16,03,16.30
2006,02,16,16,04,16.50
2006,02,16,16,05,21.40
2006,02,16,16,06,20.70
2006,02,16,16,07,22.40
2006,02,16,16,08,18.50
2006,02,16,16,09,15.20
2006,02,16,16,10,17.40
2006,02,16,16,11,24.90
2006,02,16,16,12,23.80
2006,02,16,16,13,19.10
2006,02,16,16,14,15.00
2006,02,16,16,15,14.80
2006,02,16,16,16,22.20
2006,02,16,16,17,17.50
2006,02,16,16,18,7.30
2006,02,16,16,19,13.90
2006,02,16,16,20,24.10
2006,02,16,16,21,18.50
2006,02,16,16,22,22.20
2006,02,16,16,23,19.40
2006,02,16,16,24,18.90
2006,02,16,16,25,15.90
2006,02,16,16,26,20.60
2006,02,16,16,27,16.90
2006,02,16,16,28,13.50
2006,02,16,16,29,14.50
2006,02,16,16,30,11.80
2006,02,16,16,31,9.60
2006,02,16,16,32,6.80
2006,02,16,16,33,12.60
2006,02,16,16,34,12.20
2006,02,16,16,35,14.90
2006,02,16,16,36,20.20
2006,02,16,16,37,14.50
2006,02,16,16,38,9.10
2006,02,16,16,39,23.90
2006,02,16,16,40,20.90
2006,02,16,16,41,12.20
2006,02,16,16,42,12.60
2006,02,16,16,43,13.10
2006,02,16,16,44,11.40
2006,02,16,16,45,20.70
2006,02,16,16,46,16.20
2006,02,16,16,47,10.80
2006,02,16,16,48,14.60
2006,02,16,16,49,14.20
2006,02,16,16,50,14.00
2006,02,16,16,51,10.70
2006,02,16,16,52,22.50
2006,02,16,16,53,23.90
2006,02,16,16,54,25.70
2006,02,16,16,55,25.70
2006,02,16,16,56,25.70
2006,02,16,16,57,25.70
2006,02,16,16,58,25.70
2006,02,16,16,59,30.40
2006,02,16,17,00,29.30
2006,02,16,17,01,22.40
2006,02,16,17,02,30.70
2006,02,16,17,03,22.80
2006,02,16,17,04,17.20
2006,02,16,17,05,16.10
2006,02,16,17,06,19.80
2006,02,16,17,07,12.60
2006,02,16,17,08,17.10
2006,02,16,17,09,17.40
2006,02,16,17,10,18.10
2006,02,16,17,11,15.40
2006,02,16,17,12,28.50
2006,02,16,17,13,26.80
2006,02,16,17,14,22.80
2006,02,16,17,15,24.80
2006,02,16,17,16,21.10
2006,02,16,17,17,17.50
2006,02,16,17,18,23.50
2006,02,16,17,19,26.50
2006,02,16,17,20,20.80
2006,02,16,17,21,28.80
2006,02,16,17,22,24.40
2006,02,16,17,23,27.20
2006,02,16,17,24,18.60
2006,02,16,17,25,19.60
2006,02,16,17,26,20.80
2006,02,16,17,27,17.00
2006,02,16,17,28,19.10
2006,02,16,17,29,27.80
2006,02,16,17,30,32.20
2006,02,16,17,31,26.20
2006,02,16,17,32,28.10
2006,02,16,17,33,22.30
2006,02,16,17,34,18.00
2006,02,16,17,35,33.30
2006,02,16,17,36,36.00